Weather in Zhivaykino

Russia / Ulyanovsk Oblast     53°28′52″N   47°07′49″E
temp.,
°C
wind,
m/s
gust,
m/s
humid.,
%
clouds,
%
prec.,
mm/h
press.,
hPa
HPBL,
m
21 january, fri
fri2101:00−7ssw599098 0.1 1019462
04:00−13ssw369848 0.1 1019110
07:00−19s2210099 0.0 102021
10:00−17sse37100100 0.0 1020124
13:00−9sse5139298 0.0 1018384
16:00−9sse51493100 0.0 1017471
19:00−11sse51694100 0.0 1018457
22:00−10sse61892100 0.0 1016517
22 january, sat
sat2201:00−10sse61794100 0.1 1015562
04:00−9sse51395100 1.2 1015537
07:00−7sse41095100 0.9 1015441
10:00−7sse4995100 1.9 1017357
13:00−5sse4894100 0.4 1018417
16:00−5se3895100 0.7 1018406
19:00−6se3896100 0.7 1020359
22:00−4sse41096100 2.3 1020557
23 january, sun
sun2301:00−4sse41196100 2.2 1021601
04:00−5sse41096100 4.0 1022502
07:00−5sse41096100 1.1 1024436
10:00−5sse3896100 1.9 1027377
13:00−4se4795100 0.8 1028398
16:00−5ese4796100 1.7 1030361
19:00−7ese4895100 0.7 1032311
22:00−8ese3990100 0.8 1034279
24 january, mon
mon2401:00−9ese3988100 0.0 1034235
04:00−12e2791100 0.0 1035139
07:00−14e2493100 0.0 103670
10:00−12ese2892100 0.0 1037189
13:00−8ese4886100 0.0 1036287
16:00−9ese3889100 0.0 1036246
19:00−15e2297100 0.0 103716
22:00−18e2299100 0.0 103712
25 january, tue
tue2501:00−19ese2197100 0.0 103610
04:00−21se1199100 0.0 103610
07:00−21ese1198100 0.0 10359
10:00−18se2292100 0.0 103545
13:00−11sse3680100 0.0 1034194
16:00−11se388989 0.0 1033228
19:00−19se2210027 0.0 103410
22:00−21sse2210061 0.0 103418